Время (UTC), дата Ветер
(°,м/с) 
Видим.   Явления Облачность Т
(°С)
Тd
(°С)
f(%) Тe
(°С)
Pmin
(гПа)
dP
(гПа)
Po
(мм)
O2
(г/м3)
Тmin Tmax R s Состояние
почвы
00 03.03.15 120 (ЮВ) 10 км    ясно 
-7.2 -11 74 -7  1025.8  0.2  758  315           
03 03.03.15 130 (ЮВ) 10 км    ясно 
-7.9 -10.3 83 -9  1026  0.2  758  315  -8      52  равномерный
мокрый или
старый снег
100% 
06 03.03.15 140 (ЮВ) 10 км    ясно 
-6.4 -10.2 74 -8  1026.3  0.4  758  314  -8.1         
09 03.03.15 140 (ЮВ) 10 км    ясно 
-3.6 -9.8 62 -5  1025.8  -0.3  758  310           
12 03.03.15 100 (В) 10 км    ясно 
-0.9 -9.5 52 -2  1025.2  -0.5  758  307           
15 03.03.15 100 (В) 10 км    ясно 
-3.4 -10.2 59 -5  1025  -0.3  757  310    +0.9       
18 03.03.15 100 (В) 10 км    ясно 
-4.9 -10.6 64 -6  1024.6  -0.5  757  312           
21 03.03.15 120 (ЮВ) 10 км    ясно 
-5.9 -10.5 70 -6  1024.1  -0.5  757  313           
00 04.03.15 110 (В) 10 км    ясно 
-7.1 -11.5 71 -7  1023.4  -0.5  756  314           
03 04.03.15 120 (ЮВ) 10 км    1/0 верхняя 
[Ci fib]
-8.7 -12.1 76 -8  1023.1  -0.4  756  316  -8.7      52  равномерный
мокрый или
старый снег
100% 
06 04.03.15 050 (СВ) 10 км    5/0 верхняя 
[Ci fib]
-4.3 -10.6 61 -4  1022.4  -0.5  755  310  -9         
09 04.03.15 250 (З) 4000 м  дымка  9/0 верхняя 
[Cs]
-1.5 -8.7 58 -1  1021.9  -0.3  755  307           
12 04.03.15 340 (С) 10 км    10/0 верхняя 
[Cs]
-0.6 -9.5 51 1021.3  -0.5  755  306           
15 04.03.15 330 (СЗ) 10 км    9/0 верхняя 
[Cs]
-2.9 -9.3 61 -2  1021.3  0.1  755  308    -0       
18 04.03.15 тихо ()   10 км    3/0 верхняя 
[Cs]
-5.5 -9.1 76 -6  1021.1  -0.4  754  311           
21 04.03.15 тихо ()   10 км    ясно 
-8.3 -10.6 83 -8  1021  -0.3  754  314           
00 05.03.15 тихо ()   2000 м  дымка  ясно 
-10.2 -11.8 88 -10  1021.3  0.2  754  317           
03 05.03.15 тихо ()   2000 м  дымка [диам. изморози 0 мм]  ясно 
-12.2 -13.7 89 -12  1022.3  0.7  755  320  -12.2      51  равномерный
мокрый или
старый снег
100% 
06 05.03.15 160 (Ю) 2000 м  в посл. час туман [диам. изморози 4 мм]  ясно 
-11.6 -13.3 87 -11  1022.7  0.6  755  319  -14.8         
09 05.03.15 150 (ЮВ) 10 км  [диам. изморози 8 мм]  ясно 
-6.9 -11.4 70 -8  1023.3  0.9  756  314           
12 05.03.15 140 (ЮВ) 10 км    ясно 
-4.8 -12.1 57 -6  1024.1  0.8  757  311           
15 05.03.15 130 (ЮВ) 10 км    ясно 
-6.8 -12.9 62 -6  1025.2  757  314    -4.7       
18 05.03.15 100 (В) 10 км    ясно 
-9.2 -13.2 73 -9  1026.1  0.7  758  317           
21 05.03.15 110 (В) 10 км    ясно 
-10.4 -13.3 79 -10  1026.7  0.6  758  319           
00 06.03.15 тихо ()   10 км    ясно 
-12.7 -14.8 84 -13  1027.3  0.4  759  322           
03 06.03.15 110 (В) 10 км    ясно 
-13.6 -15.3 87 -14  1027.9  0.6  759  323  -13.6      51  равномерный
мокрый или
старый снег
100% 
06 06.03.15 160 (Ю) 10 км    ясно 
-11.3 -13.6 83 -11  1028.6  0.4  760  321  -13.8         
09 06.03.15 150 (ЮВ) 10 км    ясно 
-8.6 -13.2 69 -10  1028.6  0.1  760  317           
12 06.03.15 160 (Ю) 10 км    ясно 
-7.3 -13 64 -7  1028.6  0.1  760  316           
15 06.03.15 140 (ЮВ) 10 км    ясно 
-8.9 -13.3 71 -9  1029.2  0.5  760  318    -6.8       
18 06.03.15 160 (Ю) 4000 м  дымка  ясно 
-11.5 -14.1 81 -11  1029.7  0.3  760  321           
21 06.03.15 110 (В) 2000 м  дымка  ясно 
-11.6 -13.9 83 -11  1029.1  -0.6  760  321           
00 07.03.15 120 (ЮВ) 2000 м  дымка  ясно 
-12.6 -14.4 86 -13  1029.1  0.1  760  322           
03 07.03.15 110 (В) 2000 м  дымка  ясно 
-13.5 -15 88 -13  1029.1  760  323  -13.7      51  равномерный
мокрый или
старый снег
100% 
06 07.03.15 тихо ()   2000 м  дымка  ясно 
-9.1 -11 86 -9  1029.1  0.2  760  318  -14.3         
09 07.03.15 160 (Ю) 4000 м  дымка  ясно 
-6.8 -11.7 68 -6  1028.7  -0.2  760  315           
12 07.03.15 160 (Ю) 10 км    9/0 средняя, верхняя 
[Ac lent|Cs]
-5.6 -11.2 65 -5  1028.6  0.1  760  314           
15 07.03.15 150 (ЮВ) 10 км    9/0 средняя, верхняя 
[Ac lent|Ci fib]
-7.1 -11.5 71 -7  1028.7  760  315    -5.3       
18 07.03.15 тихо ()   4000 м  дымка  9/0 средняя 
[Ac lent]
-8.8 -12 77 -9  1028.9  0.2  760  318           
21 07.03.15 130 (ЮВ) 10 км    9/0 средняя 
[Ac As]
-9.2 -12.1 79 -9  1028.8  -0.2  760  318           
00 08.03.15 тихо ()   4000 м  дымка  9/0 средняя 
[Ac As]
-11 -13.2 84 -11  1028.8  0.1  760  320           
03 08.03.15 140 (ЮВ) 4000 м  дымка  ясно 
-12.1 -13.7 88 -12  1028.6  -0.3  760  321  -12.2      51  равномерный
мокрый или
старый снег
100% 
06 08.03.15 170 (Ю) 4000 м  дымка  ясно 
-8.4 -10.8 83 -8  1028.8  0.4  760  317  -12.6         
09 08.03.15 150 (ЮВ) 10 км    ясно 
-4.8 -11.9 57 -4  1027.5  -1  759  312           
12 08.03.15 150 (ЮВ) 10 км    ясно 
-3.8 -11.7 54 -3  1026.9  -0.6  759  311           
15 08.03.15 140 (ЮВ) 10 км    5/0 верхняя 
[Ci fib]
-7.3 -12.1 68 -9  1025.9  -1.2  758  315    -3       
18 08.03.15 150 (ЮВ) 10 км    3/0 верхняя 
[Ci fib]
-8.5 -13.3 68 -8  1025.6  -0.4  757  316           
21 08.03.15 130 (ЮВ) 10 км    10/0 средняя 
[Ac cast]
-7.7 -12.2 70 -7  1023.5  -1.9  756  315           
00 09.03.15 190 (Ю) 10 км    10/0 средняя 
[Ac cast]
-7.4 -10.9 76 -7  1021.8  -1.7  755  314           
03 09.03.15 140 (ЮВ) 10 км    10/0 средняя 
[Ac cast]
-6.8 -10.5 75 -6  1020.5  -1.3  754  312  -9      50  равномерный
мокрый или
старый снег
100% 
06 09.03.15 170 (Ю) 10 км  слаб. снег  10/10 420 м 
[Ns]
-4.8 -6.8 86 -4  1019.4  -0.9  753  310           
09 09.03.15 240 (ЮЗ) 10 км  {снег}  10/10 270 м 
[St]
+0.2 -1.8 86 -1  1017.4  -1.6  752  303           
12 09.03.15 240 (ЮЗ) 4000 м  морось{снег}  10/10 300 м 
[St]
+1.2 -0.6 88 1016.7  -0.7  751  301           
15 09.03.15 250 (З) 4000 м  слаб. морось  10/10 180 м 
[St]
+1.6 +0.4 92 +1  1015.6  -1.1  751  301    +1.6  0.3     
18 09.03.15 250 (З) 4000 м  дымка{морось}  10/10 120 м 
[St]
+1.7 +0.7 93 1014.8  -0.7  750  300           
21 09.03.15 250 (З) 2000 м  дымка  10/10 120 м 
[St]
+2 +1.2 94 +1  1013.7  -1  749  299           
00 10.03.15 240 (ЮЗ) 4000 м  дымка  10/0 средняя 
[As op]
+2.4 +1.3 92 +1  1012.4  -1.3  748  299           
03 10.03.15 270 (З) 10 км  слаб. дождь  10/10 300 м 
[Frnb|Ns]
+2.2 +0.7 90 +2  1012.5  -0.1  748  299  +1.6    0.6  50  равномерный
мокрый или
старый снег
100% 
06 10.03.15 290 (З) 4000 м  слаб. морось{дождь}  10/10 150 м 
[St]
+2.5 +1.5 93 +2  1014.8  2.3  750  299           
09 10.03.15 310 (СЗ) 4{10}  10 км  {морось}  10/10 180 м 
[St]
+3.9 -0.7 72 +2  1018.1  3.4  752  299           
12 10.03.15 290 (З) 10 км  {морось}  ясно 
+6.3 -2.5 53 +6  1019.5  1.5  754  297           
15 10.03.15 280 (З) 10 км    1/0 верхняя 
[Ci fib]
+3.1 -1.7 71 +3  1022  2.3  755  301    +6.4  0.0     
18 10.03.15 330 (СЗ) 10 км    ясно 
+1.4 -2.8 74 +2  1024.3  2.1  757  304           
21 10.03.15 270 (З) 10 км    ясно 
-0.3 -3.8 77 1025.9  1.5  758  306           
00 11.03.15 тихо ()   10 км    9/0 средняя 
[Ac lent]
-1.8 -4.3 83 -2  1026.8  0.8  759  308           
03 11.03.15 140 (ЮВ) 10 км    3/0 средняя 
[Ac lent]
-2.2 -4.8 82 -2  1026.4  -0.5  758  309  -2.2      49  равномерный
мокрый или
старый снег
100% 
06 11.03.15 150 (ЮВ) 10 км    8/0 средняя 
[Ac trans]
+0.5 -4.3 70 +1  1026.3  0.1  758  306  -2.5         
09 11.03.15 240 (ЮЗ) 10 км    8/0 средняя, верхняя 
[Ac trans|Ci sp]
+5.1 -3.9 52 +4  1025.6  -0.5  758  300           
15 11.03.15 230 (ЮЗ) 10 км    8/0 средняя 
[Ac trans]
+4 -1.6 67 +5  1023.8  -0.5  757  301    +6.2       
18 11.03.15 160 (Ю) 10 км    6/0 средняя 
[Ac As]
+2.2 -1.6 76 +3  1023.1  -0.8  756  302           
21 11.03.15 200 (Ю) 10 км    4/0 средняя 
[Ac As]
+2.7 -1.3 75 +3  1023.1  0.1  756  302           
00 12.03.15 190 (Ю) 10 км    4/0 средняя 
[Ac trans]
+1.7 -1.2 81 +2  1023.5  0.3  756  303           
03 12.03.15 140 (ЮВ) 10 км    9/0 средняя 
[Ac As]
+0.4 -1.4 88 +1  1024  0.4  757  305  +0.2      47  равномерный
мокрый или
старый снег
100% 
06 12.03.15 200 (Ю) 10 км    9/0 средняя, верхняя 
[Ac lent|Ci fib]
+3.3 +0.3 81 +4  1024.8  757  301           
09 12.03.15 280 (З) 10 км    10/0 средняя, верхняя 
[Ac lent|Cs]
+5 +0.1 71 +5  1025.5  0.8  758  300           
12 12.03.15 260 (З) 10 км    10/0 средняя 
[Ac lent]
+4.6 +0.2 73 +5  1026.5  0.9  759  301           
15 12.03.15 280 (З) 10 км    10/0 средняя 
[Ac lent]
+3.8 +0.1 77 +5  1028.1  1.6  760  302    +5.3       
18 12.03.15 320 (СЗ) 10 км    10/0 средняя 
[Ac lent]
+3.6 +0.2 78 +4  1030.4  2.2  762  303           
21 12.03.15 360 (С) 10 км    8/8 300 м 
[Sc]
+2.3 -0.8 80 +1  1032.9  2.4  763  305           
00 13.03.15 360 (С) 10 км    10/10 720 м 
[Sc]
+1.8 -1.9 76 1035.8  2.8  765  307           
03 13.03.15 010 (С) 10 км    ясно 
+0.2 -3.3 77 -1  1038.3  2.4  767  309  +0.2      45  равномерный
мокрый или
старый снег
100% 
06 13.03.15 060 (СВ) 10 км    ясно 
+0.9 -4.5 67 -1  1040.4  769  309  -0.5         
09 13.03.15 040 (СВ) 10 км    ясно 
+3 -5.9 52 +2  1041.7  1.4  770  308           
12 13.03.15 070 (В) 10 км    ясно 
+3.8 -7.1 45 +5  1042  0.4  770  307           
15 13.03.15 350 (С) 10 км    ясно 
+3 -6.8 48 +4  1042.3  0.2  770  308    +4.2       
18 13.03.15 тихо ()   10 км    ясно 
+0.9 -7.1 55 +1  1042.6  0.2  770  310           
21 13.03.15 310 (СЗ) 10 км    ясно 
+0 -7.3 58 +1  1043.2  0.5  771  311           
00 14.03.15 330 (СЗ) 10 км    ясно 
-0.9 -8.3 57 1043.3  771  313           
03 14.03.15 270 (З) 10 км    ясно 
-2.9 -7.6 70 -2  1044.3  0.8  772  315  -2.9      44  равномерный
мокрый или
старый снег
100% 
06 14.03.15 270 (З) 10 км    ясно 
+0.3 -7.3 57 1044.7  0.5  772  312  -3.5         
09 14.03.15 290 (З) 10 км    ясно 
+4.1 -6.3 47 +3  1043.4  -1  771  307           
12 14.03.15 290 (З) 10 км    ясно 
+5.9 -6.4 41 +5  1041.8  -1.4  770  304           
15 14.03.15 280 (З) 10 км    ясно 
+3.5 -4.5 56 +3  1041.6  -0.4  770  307    +6.2       
18 14.03.15 300 (СЗ) 10 км    ясно 
+2.4 -5.3 57 +2  1041.4  -0.2  770  308           
21 14.03.15 290 (З) 10 км    ясно 
+1.6 -7 53 1040  -1.4  769  309           
00 15.03.15 280 (З) 10 км    ясно 
-0.5 -7.6 59 -1  1039.1  -1  768  311           
03 15.03.15 300 (СЗ) 10 км    ясно 
-1.3 -9.4 54 -2  1038.7  -0.4  767  312  -1.3      42  равномерный
мокрый или
старый снег
100% 
06 15.03.15 290 (З) 10 км    1/1 30 м 
+0.2 -8.4 52 -2  1038.5  0.1  767  310  -1.5         
09 15.03.15 270 (З) 10 км    ясно 
+4.5 -6 46 +3  1037  -1.3  766  304           
12 15.03.15 330 (СЗ) 3{10}  10 км    ясно 
+5.4 -5.7 45 +4  1036.2  -0.7  766  303           
15 15.03.15 340 (С) 10 км    8/8 1200 м 
[Sc]
+3.2 -5 55 +2  1037.7  1.4  767  306    +6.6       
18 15.03.15 340 (С) 10 км    3/3 1000 м 
[Sc]
+2.7 -5 57 +2  1038.2  0.5  767  307           
21 15.03.15 340 (С) 10 км    ясно 
+0.9 -6.2 59 1039  0.6  768  309           
00 16.03.15 340 (С) 10 км    ясно 
-0.9 -7.1 63 -3  1040.5  1.3  769  312           
03 16.03.15 030 (СВ) 10 км    ясно 
-2.4 -8.8 62 -3  1043.4  2.8  771  314  -2.4      41  равномерный
мокрый или
старый снег
100% 
06 16.03.15 050 (СВ) 10 км    ясно 
-1.1 -10.6 48 -2  1045.7  2.3  773  314  -2.6         
09 16.03.15 020 (С) 3{10}  10 км    ясно 
+0.3 -10.9 43 -1  1046.9  1.2  774  312           
12 16.03.15 360 (С) 10 км    3/0 средняя 
[Ac lent]
+0.9 -11.5 39 -1  1046.7  -0.2  773  312           
15 16.03.15 350 (С) 10 км    ясно 
+0.4 -11.6 40 1046.4  -0.4  773  312    +1.7       
18 16.03.15 тихо ()   10 км    ясно 
-1.2 -10.1 51 -1  1047  0.5  774  314           
21 16.03.15 тихо ()   10 км    ясно 
-3.4 -9.9 61 -3  1046.8  -0.3  773  317           
00 17.03.15 тихо ()   10 км    ясно 
-2.8 -9.4 60 -3  1046.2  -0.6  773  316           
03 17.03.15 тихо ()   10 км    ясно 
-5.4 -10 70 -5  1045.7  -0.6  773  319  -6      40  равномерный
мокрый или
старый снег
100% 
06 17.03.15 340 (С) 10 км    ясно 
-1.2 -13.9 37 -2  1045.3  -0.2  772  314           
09 17.03.15 280 (З) 10 км    ясно 
+3.7 -7 45 +3  1044.5  772  308           
12 17.03.15 270 (З) 10 км    ясно 
+6.1 -5.1 44 +6  1043.2  -1.2  771  304           
15 17.03.15 280 (З) 10 км    ясно 
+3.6 -4.1 57 +4  1042.5  -0.7  771  307    +6.2       
18 17.03.15 300 (СЗ) 10 км    ясно 
+1.1 -3.9 69 +2  1042.2  -0.5  770  310           
21 17.03.15 310 (СЗ) 10 км    ясно 
-1.4 -4.4 80 -1  1041.5  -0.8  770  312           
00 18.03.15 330 (СЗ) 10 км    ясно 
-1.1 -4.7 76 -1  1040.9  -0.6  769  312           
03 18.03.15 340 (С) 10 км    ясно 
-3.2 -5.7 83 -3  1040.5  -0.5  769  314  -3.2      39  равномерный
мокрый или
старый снег
100% 
06 18.03.15 300 (СЗ) 10 км    ясно 
+0.2 -5.1 67 -1  1039.8  -0.5  768  310           
09 18.03.15 270 (З) 10 км    ясно 
+6.1 -3.5 50 +7  1038.1  -1.3  767  303           
12 18.03.15 270 (З) 10 км    4/0 верхняя 
[Ci fib]
+9.3 -5.3 35 +10  1036.4  -1.6  766  299           
15 18.03.15 270 (З) 10 км    5/0 верхняя 
[Ci fib]
+6.1 -4.7 46 +7  1035  -1.5  765  302    +9.6       
18 18.03.15 тихо ()   10 км    ясно 
+1.7 -4 66 +2  1034.7  -0.6  765  307           
21 18.03.15 330 (СЗ) 10 км    ясно 
+2.1 -4.9 60 +3  1033.9  -0.7  764  306           
00 19.03.15 тихо ()   10 км    ясно 
-0.8 -4.8 74 -1  1033.4  -0.7  764  309           
03 19.03.15 310 (СЗ) 10 км    3/0 верхняя 
[Ci fib]
-0.2 -6 65 1032.9  -0.4  763  308  -0.8      35  равномерный
мокрый или
старый снег
100% 
06 19.03.15 320 (СЗ) 10 км    3/0 верхняя 
[Ci fib]
+3.7 -5.4 51 +5  1032.6  0.1  763  304           
09 19.03.15 280 (З) 10 км    ясно 
+10.1 -6.8 30 +11  1031.6  -0.6  763  297           
12 19.03.15 180 (Ю) 10 км    6/0 верхняя 
[Ci fib]
+9.9 -6.4 31 +11  1030.3  -1.3  762  297           
15 19.03.15 110 (В) 10 км    6/0 верхняя 
[Ci fib]
+6.2 -6.3 40 +7  1028.9  -1.6  761  300    +13.4       
18 19.03.15 110 (В) 10 км    ясно 
+1.6 -4.9 62 +2  1028.3  -0.9  760  305           
21 19.03.15 130 (ЮВ) 10 км    ясно 
-0.1 -5.7 66 +1  1026.8  -1.5  759  306           
00 20.03.15 тихо ()   10 км    ясно 
-1.2 -6.1 69 -1  1025.4  -1.5  758  307           
03 20.03.15 120 (ЮВ) 10 км    ясно 
-2.1 -6.8 70 -2  1024  -1.4  757  308  -2.2      33  равномерный
мокрый или
старый снег
100% 
06 20.03.15 160 (Ю) 10 км    ясно 
+2.8 -7.1 48 +2  1022.6  -1.2  756  302           
09 20.03.15 240 (ЮЗ) 10 км    ясно 
+8.2 -8.8 29 +8  1020.1  -2.2  754  296           
12 20.03.15 190 (Ю) 10 км    ясно 
+8.5 -6.2 35 +10  1017.8  -2.2  752  295           
15 20.03.15 170 (Ю) 10 км    ясно 
+3.9 -5.2 51 +5  1015.6  -2.4  751  299    +8.8       
18 20.03.15 200 (Ю) 10 км    8/0 средняя 
[Ac trans]
+2 -4.4 63 +3  1015  -0.6  750  301           
21 20.03.15 220 (ЮЗ) 10 км    1/0 средняя 
[Ac trans]
+0.5 -5 67 +1  1013.3  -1.8  749  302           
00 21.03.15 140 (ЮВ) 10 км    ясно 
-1.6 -5.9 73 -1  1011.9  -1.5  748  304           
03 21.03.15 160 (Ю) 10 км    9/0 верхняя 
[Ci fib]
-2.8 -6.1 78 -2  1010.9  -1.1  747  305  -2.8      32  равномерный
мокрый или
старый снег
100% 
06 21.03.15 180 (Ю) 10 км    9/0 верхняя 
[Ci fib]
+1.3 -4.6 65 +2  1009.7  -0.9  746  300  -2.8         
09 21.03.15 170 (Ю) 10 км    8/0 верхняя 
[Ci fib]
+4.7 -3 57 +4  1007.8  -1.7  745  295           
12 21.03.15 180 (Ю) 10 км    6/0 верхняя 
[Ci fib]
+4.6 -1.9 63 +4  1006.3  -1.5  744  295           
15 21.03.15 140 (ЮВ) 10 км    10/0 верхняя 
[Cs]
+2.4 -1.8 74 +3  1004.6  -1.8  742  297    +5.1       
18 21.03.15 140 (ЮВ) 10 км    6/0 верхняя 
[Cs]
-0.1 -2.5 84 +1  1003.8  -0.9  742  299           
21 21.03.15 150 (ЮВ) 10 км    9/0 средняя 
[Ac lent]
-0.4 -3.1 82 1002.3  -1.5  741  299           
00 22.03.15 240 (ЮЗ) 10 км    10/0 средняя 
[Ac lent]
+0.7 -3 76 +1  1000.9  -1.3  740  298           
03 22.03.15 270 (З) 4000 м  слаб. снег  10/10 180 м 
[Frnb|Ns]
+0.2 -1.1 91 -1  1000.9  740  298  -0.5    0.3  32  равномерный
мокрый или
старый снег
100% 
06 22.03.15 270 (З) 10 км  {снег}  10/3 600 м средняя 
[Frnb|As trans]
+1.4 -1.9 79 1001.5  0.6  740  297           
09 22.03.15 280 (З) 4-10{10}  10 км    10/4 1500 м средняя 
[Sc|As trans]
+1.2 -5.7 60 -1  1002.2  0.6  741  298           
12 22.03.15 270 (З) 4{10}  10 км    9/0 верхняя 
[Cs]
+1.7 -8.4 47 1002.3  0.2  741  297           
15 22.03.15 270 (З) 10 км    8/0 верхняя 
[Cs]
-0 -8 55 -2  1002.9  0.4  741  299    +2.2  0.0     
18 22.03.15 290 (З) 10 км    10/0 средняя 
[Ac As]
-1.6 -9.9 53 -3  1003.8  0.8  742  302           
21 22.03.15 300 (СЗ) 10 км    8/0 верхняя 
[Cs]
-2.8 -10.5 55 -4  1004.1  0.3  742  303           
00 23.03.15 340 (С) 4000 м  слаб. снег  10/10 600 м 
[Frnb|Ns]
-4.4 -8.1 75 -7  1005.5  1.3  743  305           
03 23.03.15 340 (С) 3{10}  10 км  {снег}  8/0 средняя 
[Ac lent]
-5.4 -10.8 66 -8  1008.3  2.6  745  307  -5.4    0.3  31  равномерный
мокрый или
старый снег
100% 
06 23.03.15 340 (С) 10 км    ясно 
-4.1 -12.5 52 -5  1011.5  3.3  747  307  -5.9         
09 23.03.15 340 (С) 10 км    4/0 1000 м 
[Sc]
-1.8 -16.2 32 -4  1013.3  1.9  749  305           
12 23.03.15 320 (СЗ) 10 км    4/0 1000 м 
[Sc]
-1.7 -17.5 29 -4  1014.3  749  305           
15 23.03.15 300 (СЗ) 10 км    ясно 
-2.7 -17.5 31 -5  1015.2  0.7  750  307    -1.2       
18 23.03.15 270 (З) 10 км    ясно 
-4.7 -13.7 49 -6  1016.5  1.2  751  309           
21 23.03.15 250 (З) 10 км    ясно 
-6.5 -13.7 57 -6  1016.6  751  311           
00 24.03.15 240 (ЮЗ) 10 км    ясно 
-7.2 -14.2 57 -9  1016.1  -0.5  751  312           
03 24.03.15 190 (Ю) 10 км    ясно 
-8.9 -13.9 67 -9  1014.6  -1.6  749  313  -9.3      30  равномерный
мокрый или
старый снег
100% 
06 24.03.15 230 (ЮЗ) 10 км    10/0 средняя 
[As trans]
-4.3 -12.6 52 -7  1012.4  -1.8  748  307           
09 24.03.15 210 (ЮЗ) 10 км  слаб. снег  10/0 средняя 
[As trans]
-3.1 -8 69 -4  1009.8  -2.5  746  305           
12 24.03.15 200 (Ю) 2{11}  2000 м  снег  10/10 180 м 
[Frnb|Ns]
-3.1 -5 87 -4  1007.7  -2  745  304           
15 24.03.15 240 (ЮЗ) 2000 м  снег  10/10 180 м 
[Frnb|Ns]
-2.5 -4.3 87 -5  1006.3  -1.4  743  303    -2.5     
18 24.03.15 240 (ЮЗ) 3{10}  2000 м  снег  10/10 270 м 
[Frnb|Ns]
-1.8 -3.3 90 -4  1005.8  -0.4  743  302           
21 24.03.15 250 (З) н/о    н/о 
+0.1 -2.4 83 -2  1005.6  -0.2  743  300           
00 25.03.15 240 (ЮЗ) 10 км    10/8 1300 м средняя 
[Sc|Ac lent]
+1.1 -2.9 75 1005.9  0.3  743  299           
03 25.03.15 250 (З) 10 км    9/9 1500 м 
[Sc]
+1.5 -3.5 69 1007  1.2  744  299  -2.6    32  равномерный
мокрый или
старый снег
100% 
06 25.03.15 270 (З) 10 км    10/8 1140 м средняя 
[Sc|Ac lent]
+3.7 -3 62 +2  1008.2  1.2  745  297           
09 25.03.15 270 (З) 3{10}  10 км    8/0 средняя 
[Ac lent]
+4.3 -2.3 62 +3  1009.8  1.6  746  296           
12 25.03.15 280 (З) 4{11}  10 км    9/8 1500 м верхняя 
[Sc diur, vesp|Ci fib]
+5 -2.2 60 +3  1012.3  2.5  748  296           
15 25.03.15 310 (СЗ) 10 км    9/8 1200 м верхняя 
[Cu med, cong|Ci fib]
+4.2 -2.3 63 +4  1015.4  751  298    +5.4       
18 25.03.15 350 (С) 10 км    9/9 1200 м 
[Sc]
+1.1 -6.4 57 1020  4.3  754  303           
21 25.03.15 350 (С) 10 км    1/0 средняя 
[Ac lent]
-1.8 -9.9 54 -3  1023.1  2.9  756  308           
00 26.03.15 040 (СВ) 10 км    ясно 
-4.7 -12.2 56 -4  1026.3  758  312           
03 26.03.15 060 (СВ) 10 км    5/0 верхняя 
[Ci fib]
-5.4 -12.5 57 -7  1028.7  2.2  760  314  -5.5      30  равномерный
мокрый или
старый снег
100% 
06 26.03.15 070 (В) 10 км    ясно 
-2.6 -12 48 -4  1030.3  1.7  761  311           
09 26.03.15 050 (СВ) 10 км    8/0 верхняя 
[Cs]
-0.8 -14.6 34 -3  1031.1  0.9  762  309           
12 26.03.15 010 (С) 10 км    9/0 средняя, верхняя 
[As trans|Ci]
-1.3 -13.1 40 -1  1031.7  0.6  762  310           
15 26.03.15 070 (В) 10 км    ясно 
-2.6 -11.9 49 -4  1032.3  0.5  763  311    -0.5       
18 26.03.15 060 (СВ) 10 км    ясно 
-4 -15.2 41 -5  1033.8  1.4  764  314           
21 26.03.15 070 (В) 10 км    ясно 
-5.1 -16.4 41 -6  1034.8  0.9  764  315           
00 27.03.15 080 (В) 10 км    ясно 
-5.8 -16.5 43 -7  1035.8  765  316           
03 27.03.15 060 (СВ) 10 км    ясно 
-6.2 -15.9 46 -6  1037.9  767  317  -6.3      30  равномерный
мокрый или
старый снег
100% 
06 27.03.15 050 (СВ) 10 км    ясно 
-1.9 -15.6 34 -3  1039.1  1.4  768  313           
09 27.03.15 090 (В) 10 км    ясно 
-0.4 -15.4 31 -2  1040  0.9  768  311           
12 27.03.15 070 (В) 10 км    ясно 
-0.1 -14.7 32 -1  1040.4  0.5  769  311           
15 27.03.15 050 (СВ) 10 км    ясно 
-1.2 -16.8 30 -1  1040.7  0.2  769  313    +0.4       
18 27.03.15 тихо ()   10 км    ясно 
-3.5 -13 48 -4  1042.3  1.4  770  316           
21 27.03.15 310 (СЗ) 10 км    ясно 
-4.5 -14.4 46 -4  1043.4  771  317           
00 28.03.15 140 (ЮВ) 10 км    ясно 
-7.4 -12.8 65 -7  1044.8  1.3  772  321           
03 28.03.15 тихо ()   10 км    ясно 
-8 -11.4 76 -8  1046.1  1.2  773  322  -8.1      30  равномерный
мокрый или
старый снег
100% 
06 28.03.15 тихо ()   10 км    ясно 
+0.2 -12.1 39 1047.1  1.4  774  313           
09 28.03.15 080 (В) 10 км    ясно 
+1.2 -16.5 25 +1  1047  774  312           
12 28.03.15 150 (ЮВ) 10 км    ясно 
+1.7 -15.3 27 +2  1046.4  -0.6  773  311           
15 28.03.15 150 (ЮВ) 10 км    ясно 
-0.4 -15.4 31 1045.6  -0.9  773  313    +1.8       
18 28.03.15 100 (В) 10 км    ясно 
-2.2 -15.2 36 -2  1046  0.2  773  315           
21 28.03.15 тихо ()   10 км    ясно 
-4.4 -14 47 -4  1046.1  773  318           
00 29.03.15 120 (ЮВ) 10 км    ясно 
-5.3 -13.4 53 -5  1045.8  -0.3  773  319           
03 29.03.15 130 (ЮВ) 10 км    ясно 
-7 -13.4 60 -7  1046.6  0.6  773  321  -7.1      29  равномерный
мокрый или
старый снег
100% 
06 29.03.15 150 (ЮВ) 10 км    3/0 верхняя 
[Ci fib]
-2.9 -11.1 53 -4  1046.6  0.3  773  316           
09 29.03.15 150 (ЮВ) 10 км    9/0 верхняя 
[Cs]
-1.1 -12.2 43 -3  1045.8  -0.7  773  314           
12 29.03.15 150 (ЮВ) 10 км    8/0 верхняя 
[Ci fib]
-0.7 -10.7 47 -3  1044.1  -1.6  772  313           
15 29.03.15 170 (Ю) 10 км    10/0 верхняя 
[Ci fib]
-2.1 -9.8 56 -3  1042.5  -1.7  770  314    -0.3       
18 29.03.15 160 (Ю) 10 км    8/0 верхняя 
[Ci fib]
-4.1 -10.1 63 -5  1041.6  -1  770  316           
21 29.03.15 160 (Ю) 10 км    8/0 верхняя 
[Ci fib]
-5 -9.8 69 -6  1040.5  -1.1  769  317           
00 30.03.15 170 (Ю) 10 км    8/0 верхняя 
[Ci fib]
-6.9 -11.4 70 -8  1039.6  -1  768  319           
03 30.03.15 140 (ЮВ) 10 км    3/0 верхняя 
[Ci fib]
-8.5 -13.1 69 -10  1038.5  -1.2  767  320  -8.6      29  равномерный
мокрый или
старый снег
100% 
06 30.03.15 170 (Ю) 10 км    ясно 
-4.9 -14.1 48 -7  1038.5  0.2  767  316           
09 30.03.15 180 (Ю) 10 км    ясно 
-1.9 -14.6 37 -4  1037.2  0.2  766  312           
12 30.03.15 140 (ЮВ) 10 км    ясно 
-0.7 -12.6 40 -3  1035.6  -1.5  765  310           
15 30.03.15 150 (ЮВ) 10 км    ясно 
-1.3 -11 48 -2  1034.5  -1.2  764  311    +0       
18 30.03.15 140 (ЮВ) 10 км    ясно 
-3.2 -9.4 62 -6  1033.3  -1.2  763  312           
21 30.03.15 140 (ЮВ) 10 км    ясно 
-4.3 -9.3 68 -7  1032.9  -0.5  763  313           
00 31.03.15 140 (ЮВ) 10 км    3/0 верхняя 
[Ci fib]
-5.7 -10.3 70 -7  1033.4  0.4  763  315           
03 31.03.15 120 (ЮВ) 10 км    4/0 верхняя 
[Ci fib]
-7 -10.8 74 -7  1033.5  0.1  763  317  -7.1      29  равномерный
мокрый или
старый снег
100% 
06 31.03.15 150 (ЮВ) 10 км    6/0 верхняя 
[Ci fib]
-4 -10.8 59 -6  1033.1  -0.3  763  313           
09 31.03.15 140 (ЮВ) 10 км    5/0 верхняя 
[Ci fib]
-0.5 -10.2 48 -1  1032.3  -0.6  763  309           
12 31.03.15 150 (ЮВ) 10 км    8/0 верхняя 
[Ci fib]
+2.1 -9.4 42 +1  1030.7  -1.4  762  306           
15 31.03.15 140 (ЮВ) 10 км    8/0 верхняя 
[Ci fib]
+0.7 -7.8 53 1029  -1.7  760  306    +2.2       
18 31.03.15 140 (ЮВ) 10 км    ясно 
-1.3 -7.8 61 -2  1028.3  -0.8  760  308           
21 31.03.15 130 (ЮВ) 10 км    3/0 верхняя 
[Ci fib]
-2.6 -8.9 62 -4  1027.9  -0.5  759  310           
00 01.04.15 140 (ЮВ) 10 км    3/0 верхняя 
[Cs]
-3.3 -9.5 62 -4  1027.2  -0.7  759  310           
03 01.04.15 110 (В) 10 км    3/0 верхняя 
[Cs]
-4.8 -11.1 61 -4  1026.9  -0.4  759  312  -4.9      27  равномерный
мокрый или
старый снег
100% 
06 01.04.15 130 (ЮВ) 10 км    3/0 верхняя 
[Cs]
-0.6 -10.3 48 -2  1025.9  -0.7  758  307           
09 01.04.15 120 (ЮВ) 10 км    3/0 верхняя 
[Cs]
+2.7 -9.6 40 +2  1024.8  -0.9  757  303           
12 01.04.15 130 (ЮВ) 10 км    3/0 верхняя 
[Cs]
+4.3 -8.3 39 +4  1023.5  -1.1  757  301           
15 01.04.15 100 (В) 10 км    3/0 верхняя 
[Cs]
+2.9 -7.8 45 +4  1022.8  -0.8  756  302    +4.7       
18 01.04.15 130 (ЮВ) 10 км    3/0 верхняя 
[Ci fib]
+2.3 -9.8 40 +1  1022.3  -0.6  755  303           
21 01.04.15 140 (ЮВ) 10 км    3/0 верхняя 
[Ci fib]
+0.3 -8.6 51 1021.8  -0.6  755  305           
00 02.04.15 130 (ЮВ) 10 км    6/0 верхняя 
[Cs]
-1.9 -6.5 71 -3  1021.9  755  307           
03 02.04.15 140 (ЮВ) 10 км    9/0 верхняя 
[Cs]
-3.4 -6.9 77 -5  1022  755  309  -3.4      25  равномерный
мокрый или
старый снег
100% 
06 02.04.15 130 (ЮВ) 10 км    10/0 верхняя 
[Cs]
-1.5 -6.6 68 -3  1021.5  -0.3  755  307  -3.4         
09 02.04.15 140 (ЮВ) 4{10}  10 км    9/0 верхняя 
[Cs]
+1.2 -5.2 62 -1  1021.9  0.5  755  304           
12 02.04.15 150 (ЮВ) 10 км    8/0 верхняя 
[Ci fib]
+3.1 -7.1 47 +1  1020.8  -1  754  301           
15 02.04.15 120 (ЮВ) 10 км    6/0 верхняя 
[Ci fib]
+2 -5.6 57 +1  1020.5  -0.4  754  302    +3.8       
18 02.04.15 120 (ЮВ) 10 км    5/0 верхняя 
[Ci fib]
+0.2 -5.5 65 -2  1021.3  0.7  755  304           
21 02.04.15 110 (В) 10 км    5/0 верхняя 
[Ci fib]
-1.6 -5.5 75 -3  1021.6  0.2  755  307           
00 03.04.15 120 (ЮВ) 10 км    5/0 верхняя 
[Ci fib]
-2.6 -6.9 72 -4  1021.8  0.2  755  308           
03 03.04.15 100 (В) 10 км    8/0 верхняя 
[Cs]
-3.6 -7.9 72 -5  1021.7  -0.2  755  309  -3.6      25  равномерный
мокрый или
старый снег
100% 
06 03.04.15 100 (В) 10 км    3/0 верхняя 
[Ci fib]
-0.5 -8.8 53 -3  1021.1  -0.4  755  305           
Время (UTC), дата Ветер
(°,м/с) 
Видим.   Явления Облачность Т
(°С)
Тd
(°С)
f(%) Тe
(°С)
Pmin
(гПа)
dP
(гПа)
Po
(мм)
O2
(г/м3)
Тmin Tmax R s Состояние
почвы